Location: Baia Mare
(47.6567°N, 23.5850°E)
Time: 20:22:48
(UTC+03:00)

Envisat - Pass Details

Date: 24 January 2022
Orbit: 764 x 765 km, 98.2° (Epoch: 19 May)

Event Time Altitude Azimuth Distance (km) Brightness Sun altitude
Rises 05:50:06 0° 10° (N) 3,242 6.3 -22.0°
Reaches altitude 10° 05:52:26 10° 7° (N) 2,311 5.5 -21.6°
Maximum altitude 05:57:26 60° 289° (WNW) 872 2.9 -20.8°
Drops below altitude 10° 06:02:25 10° 210° (SSW) 2,296 5.2 -19.9°
Sets 06:04:43 0° 207° (SSW) 3,218 6.0 -19.5°
